Regional Weather Roundup
Issued by NWS

Home | Current Version | Previous Version | Graphics & Text | Print | Product List | Glossary On
Versions: 1 2 3 4 5 6 7 8 9 10 11 12 13 14 15 16 17 18 19 20 21 22 23 24 25 26 27 28 29 30 31 32 33 34 35 36 37 38 39 40 41 42 43 44 45 46 47 48 49 50
570
ASUS43 KBIS 241302
RWRND

NORTH DAKOTA REGIONAL WEATHER ROUNDUP
NATIONAL WEATHER SERVICE BISMARCK ND
800 AM CDT FRI MAR 24 2017

NOTE: "FAIR" INDICATES FEW OR NO CLOUDS BELOW 12,000 FEET WITH NO
SIGNIFICANT WEATHER AND/OR OBSTRUCTIONS TO VISIBILITY.


NDZ001>003-009>011-017-241400-
NORTHWEST NORTH DAKOTA

CITY           SKY/WX    TMP DP  RH WIND       PRES   REMARKS
WILLISTON      FAIR      24  23  96 CALM      30.09R FOG
MINOT          FAIR      25  23  92 N6        30.12R WCI  18
MINOT AFB      CLEAR     26  23  91 E8        30.12R WCI  17
$$

NDZ018>021-031>035-040>046-241400-
SOUTHWEST NORTH DAKOTA

CITY           SKY/WX    TMP DP  RH WIND       PRES   REMARKS
BISMARCK       FOG       27  25  92 CALM      30.09R VSB 1/2
DICKINSON      FOG       22  20  92 CALM      30.05R VSB 1/4
GARRISON         N/A     26  23  88 N5        30.09R
HETTINGER ARPT MOCLDY    31  30  96 NW7       30.04S FOG
$$

NDZ004>008-012>016-024-026-027-054-241400-
NORTHEAST NORTH DAKOTA

CITY           SKY/WX    TMP DP  RH WIND       PRES   REMARKS
GRAND FORKS    PTCLDY    30  27  88 N14       30.11R WCI  19
GRND FRKS AFB  CLEAR     28  25  88 N13       30.12R WCI  18
DEVILS LAKE    FAIR      25  22  88 N8        30.13R WCI  16
$$

NDZ022-023-025-028>030-036>039-047>053-241400-
SOUTHEAST NORTH DAKOTA

CITY           SKY/WX    TMP DP  RH WIND       PRES   REMARKS
FARGO          CLOUDY    35  33  92 N12       30.07R FOG
JAMESTOWN      FAIR      30  28  92 N7        30.08R
$$





USA.gov is the U.S. government's official web portal to all federal, state and local government web resources and services.